| time (UTC) | temp F | wind direction | speed knots | gust knots | rain 1hr in | rain 24hr in | rain mn in | humidity % | barometer mb |
| 20260905174956 | 72 | 68 | 0.0 | 0.9 | 0.00 | 0.00 | 0.00 | 85 | 1015.0 |
| 20260905174456 | 72 | 78 | 0.0 | 0.9 | 0.00 | 0.00 | 0.00 | 85 | 1015.0 |
| 20260905173956 | 72 | 59 | 0.0 | 0.9 | 0.00 | 0.00 | 0.00 | 85 | 1014.9 |
| 20260905165958 | 71 | 40 | 0.0 | 2.6 | 0.00 | 0.00 | 0.00 | 86 | 1014.8 |
| 20260905165457 | 71 | 65 | 0.9 | 2.6 | 0.00 | 0.01 | 0.00 | 85 | 1014.9 |
| 20260905164957 | 71 | 69 | 0.0 | 1.7 | 0.00 | 0.01 | 0.00 | 86 | 1014.9 |
| 20260905164458 | 72 | 78 | 0.0 | 2.6 | 0.00 | 0.01 | 0.00 | 86 | 1014.9 |
| 20260905163957 | 72 | 59 | 0.9 | 2.6 | 0.00 | 0.01 | 0.00 | 85 | 1015.0 |
| 20260905163457 | 72 | 85 | 0.9 | 2.6 | 0.00 | 0.01 | 0.00 | 86 | 1015.0 |
| 20260905162957 | 72 | 22 | 0.0 | 1.7 | 0.00 | 0.01 | 0.00 | 85 | 1014.9 |
| 20260905162457 | 72 | 59 | 0.0 | 2.6 | 0.00 | 0.01 | 0.00 | 86 | 1014.8 |
| 20260905161957 | 72 | 57 | 0.0 | 2.6 | 0.00 | 0.01 | 0.00 | 85 | 1014.8 |
| 20260905161457 | 72 | 57 | 0.9 | 2.6 | 0.00 | 0.01 | 0.00 | 85 | 1014.8 |
| 20260905160956 | 72 | 26 | 0.9 | 2.6 | 0.00 | 0.01 | 0.00 | 85 | 1014.8 |
| 20260905160456 | 72 | 142 | 0.9 | 2.6 | 0.00 | 0.01 | 0.00 | 85 | 1014.7 |
| 20260905155957 | 73 | 32 | 0.9 | 1.7 | 0.00 | 0.03 | 0.00 | 85 | 1014.6 |
| 20260905155457 | 73 | 65 | 0.0 | 1.7 | 0.00 | 0.03 | 0.00 | 85 | 1014.7 |
| 20260905154957 | 72 | 97 | 0.9 | 1.7 | 0.00 | 0.03 | 0.00 | 86 | 1014.7 |
| 20260905154458 | 72 | 39 | 0.9 | 2.6 | 0.00 | 0.03 | 0.00 | 85 | 1014.7 |
| 20260905153957 | 71 | 58 | 0.0 | 2.6 | 0.00 | 0.03 | 0.00 | 87 | 1014.8 |
| 20260905153457 | 71 | 77 | 0.0 | 4.3 | 0.00 | 0.03 | 0.00 | 87 | 1014.8 |
| 20260905152956 | 71 | 3 | 0.9 | 5.2 | 0.00 | 0.03 | 0.00 | 87 | 1014.8 |
| 20260905152457 | 71 | 118 | 0.9 | 5.2 | 0.00 | 0.03 | 0.00 | 86 | 1014.8 |
| 20260905151957 | 71 | 95 | 0.9 | 4.3 | 0.00 | 0.03 | 0.00 | 86 | 1014.7 |
| 20260905151457 | 71 | 31 | 0.9 | 4.3 | 0.00 | 0.03 | 0.00 | 86 | 1014.7 |
| 20260905150958 | 71 | 78 | 0.0 | 3.5 | 0.00 | 0.03 | 0.00 | 87 | 1014.7 |
| 20260905150457 | 70 | 31 | 0.9 | 3.5 | 0.00 | 0.03 | 0.00 | 87 | 1014.6 |
| 20260905145959 | 70 | 1 | 0.9 | 3.5 | 0.00 | 0.03 | 0.00 | 87 | 1014.5 |
| 20260905145457 | 70 | 21 | 0.9 | 2.6 | 0.00 | 0.16 | 0.00 | 88 | 1014.4 |
| 20260905144957 | 70 | 88 | 0.9 | 2.6 | 0.00 | 0.16 | 0.00 | 88 | 1014.3 |
| 20260905144457 | 70 | 68 | 0.9 | 3.5 | 0.00 | 0.16 | 0.00 | 88 | 1014.3 |
| 20260905143956 | 70 | 82 | 0.9 | 2.6 | 0.00 | 0.16 | 0.00 | 88 | 1014.4 |
| 20260905143456 | 70 | 95 | 0.9 | 2.6 | 0.00 | 0.16 | 0.00 | 88 | 1014.4 |
| 20260905142957 | 69 | 80 | 0.9 | 4.3 | 0.00 | 0.16 | 0.00 | 88 | 1014.3 |
| 20260905142457 | 69 | 12 | 0.9 | 4.3 | 0.00 | 0.16 | 0.00 | 88 | 1014.4 |
| 20260905134956 | 67 | 61 | 0.9 | 2.6 | 0.00 | 0.36 | 0.00 | 89 | 1014.3 |
| 20260905134459 | 67 | 66 | 0.9 | 2.6 | 0.00 | 0.36 | 0.00 | 89 | 1014.3 |
| 20260905133957 | 67 | 68 | 0.9 | 2.6 | 0.00 | 0.36 | 0.00 | 89 | 1014.3 |
| 20260905133457 | 67 | 72 | 0.9 | 5.2 | 0.00 | 0.36 | 0.00 | 89 | 1014.3 |
| 20260905132957 | 67 | 66 | 0.9 | 5.2 | 0.00 | 0.36 | 0.00 | 89 | 1014.2 |
| 20260905132456 | 67 | 69 | 0.9 | 2.6 | 0.00 | 0.36 | 0.00 | 89 | 1014.3 |
| 20260905131957 | 67 | 50 | 0.9 | 2.6 | 0.00 | 0.36 | 0.00 | 89 | 1014.3 |
| 20260905131457 | 67 | 71 | 0.9 | 2.6 | 0.00 | 0.36 | 0.00 | 89 | 1014.2 |
| 20260905130957 | 66 | 64 | 1.7 | 3.5 | 0.00 | 0.36 | 0.00 | 89 | 1014.2 |
| 20260905130457 | 66 | 90 | 0.9 | 4.3 | 0.00 | 0.36 | 0.00 | 89 | 1014.2 |
| 20260905125957 | 66 | 70 | 0.9 | 4.3 | 0.00 | 0.52 | 0.00 | 89 | 1014.2 |
| 20260905125456 | 66 | 60 | 0.9 | 2.6 | 0.00 | 0.52 | 0.00 | 89 | 1014.2 |
| 20260905124957 | 66 | 74 | 1.7 | 2.6 | 0.00 | 0.52 | 0.00 | 89 | 1014.1 |
| 20260905124457 | 66 | 74 | 0.9 | 2.6 | 0.00 | 0.52 | 0.00 | 90 | 1014.0 |
| 20260905123956 | 66 | 64 | 0.9 | 2.6 | 0.00 | 0.52 | 0.00 | 90 | 1014.0 |
| 20260905123458 | 66 | 63 | 0.9 | 2.6 | 0.00 | 0.52 | 0.00 | 90 | 1014.0 |
| 20260905122957 | 66 | 74 | 1.7 | 5.2 | 0.00 | 0.52 | 0.00 | 90 | 1013.9 |
| 20260905122457 | 66 | 94 | 2.6 | 5.2 | 0.00 | 0.52 | 0.00 | 90 | 1013.9 |
| 20260905122000 | 66 | 72 | 0.9 | 2.6 | 0.00 | 0.52 | 0.00 | 90 | 1013.8 |
| 20260905121457 | 66 | 53 | 0.0 | 3.5 | 0.00 | 0.52 | 0.00 | 90 | 1013.8 |
| 20260905120957 | 66 | 47 | 0.9 | 3.5 | 0.00 | 0.52 | 0.00 | 90 | 1013.7 |
| 20260905120457 | 66 | 61 | 0.9 | 1.7 | 0.00 | 0.52 | 0.00 | 90 | 1013.6 |
| 20260905115957 | 66 | 75 | 0.9 | 2.6 | 0.00 | 1.13 | 0.00 | 90 | 1013.6 |
| 20260905115457 | 66 | 86 | 0.9 | 3.5 | 0.00 | 1.13 | 0.00 | 90 | 1013.6 |
| 20260905114957 | 66 | 53 | 0.9 | 3.5 | 0.00 | 1.13 | 0.00 | 90 | 1013.5 |
| 20260905114457 | 66 | 81 | 0.9 | 3.5 | 0.00 | 1.13 | 0.00 | 90 | 1013.3 |
| 20260905113957 | 66 | 6 | 0.9 | 3.5 | 0.00 | 1.13 | 0.00 | 90 | 1013.3 |
| 20260905113458 | 66 | 107 | 0.9 | 3.5 | 0.00 | 1.13 | 0.00 | 91 | 1013.4 |
| 20260905112958 | 67 | 91 | 1.7 | 4.3 | 0.00 | 1.13 | 0.00 | 91 | 1013.4 |
| 20260905112457 | 67 | 77 | 1.7 | 3.5 | 0.00 | 1.13 | 0.00 | 91 | 1013.3 |
| 20260905111958 | 67 | 70 | 0.9 | 2.6 | 0.00 | 1.13 | 0.00 | 91 | 1013.4 |
| 20260905111457 | 67 | 60 | 0.9 | 1.7 | 0.00 | 1.13 | 0.00 | 91 | 1013.5 |
| 20260905110957 | 67 | 84 | 0.0 | 1.7 | 0.00 | 1.13 | 0.00 | 91 | 1013.4 |
| 20260905110457 | 67 | 54 | 0.9 | 2.6 | 0.00 | 1.13 | 0.00 | 91 | 1013.2 |
| 20260905105957 | 67 | 94 | 0.9 | 5.2 | 0.00 | 1.15 | 0.00 | 91 | 1013.0 |
| 20260905105456 | 67 | 47 | 0.9 | 5.2 | 0.00 | 1.15 | 0.00 | 91 | 1012.9 |
| 20260905104956 | 67 | 76 | 0.9 | 2.6 | 0.00 | 1.15 | 0.00 | 91 | 1013.0 |
| 20260905104457 | 67 | 64 | 0.9 | 1.7 | 0.00 | 1.15 | 0.00 | 91 | 1013.1 |
| 20260905103956 | 67 | 80 | 0.9 | 2.6 | 0.00 | 1.15 | 0.00 | 91 | 1013.0 |
| 20260905103458 | 67 | 55 | 0.9 | 3.5 | 0.00 | 1.15 | 0.00 | 91 | 1013.1 |
| 20260905102957 | 68 | 70 | 1.7 | 4.3 | 0.00 | 1.15 | 0.00 | 91 | 1013.0 |
| 20260905102457 | 68 | 78 | 0.9 | 4.3 | 0.00 | 1.15 | 0.00 | 91 | 1012.8 |
| 20260905101956 | 68 | 101 | 0.9 | 2.6 | 0.00 | 1.15 | 0.00 | 91 | 1012.9 |
| 20260905101457 | 68 | 59 | 1.7 | 2.6 | 0.00 | 1.15 | 0.00 | 91 | 1012.9 |
| 20260905100957 | 68 | 98 | 1.7 | 3.5 | 0.00 | 1.15 | 0.00 | 91 | 1013.0 |
| 20260905100456 | 68 | 61 | 1.7 | 3.5 | 0.00 | 1.15 | 0.00 | 91 | 1013.1 |
| 20260905095959 | 68 | 72 | 0.9 | 1.7 | 0.00 | 1.15 | 0.00 | 91 | 1013.0 |
| 20260905095459 | 68 | 72 | 0.9 | 2.6 | 0.00 | 1.15 | 0.00 | 91 | 1012.9 |
| 20260905094959 | 69 | 107 | 0.9 | 2.6 | 0.00 | 1.15 | 0.00 | 91 | 1012.8 |
| 20260905094457 | 69 | 83 | 0.9 | 3.5 | 0.00 | 1.15 | 0.00 | 91 | 1012.9 |
| 20260905093957 | 69 | 101 | 1.7 | 4.3 | 0.00 | 1.15 | 0.00 | 91 | 1012.7 |
| 20260905093457 | 69 | 70 | 0.9 | 4.3 | 0.00 | 1.15 | 0.00 | 91 | 1012.9 |
| 20260905092957 | 69 | 73 | 0.9 | 4.3 | 0.00 | 1.15 | 0.00 | 91 | 1012.9 |
| 20260905092456 | 69 | 63 | 0.9 | 2.6 | 0.00 | 1.15 | 0.00 | 91 | 1012.8 |
| 20260905091957 | 69 | 59 | 0.9 | 3.5 | 0.00 | 1.15 | 0.00 | 91 | 1012.7 |
| 20260905091457 | 69 | 78 | 1.7 | 2.6 | 0.00 | 1.15 | 0.00 | 91 | 1012.6 |
| 20260905090956 | 69 | 72 | 0.9 | 2.6 | 0.00 | 1.15 | 0.00 | 91 | 1012.4 |
| 20260905090456 | 69 | 20 | 0.9 | 2.6 | 0.00 | 1.15 | 0.00 | 91 | 1012.5 |
| 20260905085957 | 69 | 67 | 0.9 | 2.6 | 0.00 | 1.34 | 0.00 | 91 | 1012.7 |
| 20260905085456 | 69 | 90 | 0.9 | 4.3 | 0.00 | 1.34 | 0.00 | 91 | 1012.7 |
| 20260905084956 | 69 | 99 | 0.9 | 4.3 | 0.00 | 1.34 | 0.00 | 91 | 1012.8 |
| 20260905084456 | 69 | 61 | 1.7 | 4.3 | 0.00 | 1.34 | 0.00 | 91 | 1012.8 |
| 20260905083956 | 69 | 78 | 0.9 | 1.7 | 0.00 | 1.34 | 0.00 | 91 | 1012.8 |
| 20260905083457 | 69 | 78 | 0.9 | 1.7 | 0.00 | 1.34 | 0.00 | 91 | 1012.8 |
| 20260905082956 | 69 | 81 | 0.0 | 1.7 | 0.00 | 1.34 | 0.00 | 91 | 1012.7 |
| 20260905082456 | 69 | 85 | 0.9 | 1.7 | 0.00 | 1.34 | 0.00 | 91 | 1012.7 |
| 20260905081956 | 69 | 85 | 0.9 | 1.7 | 0.00 | 1.34 | 0.00 | 91 | 1012.7 |
| 20260905081456 | 69 | 85 | 0.9 | 2.6 | 0.00 | 1.34 | 0.00 | 91 | 1012.7 |
| 20260905080957 | 69 | 93 | 0.9 | 2.6 | 0.00 | 1.34 | 0.00 | 91 | 1012.6 |
| 20260905080456 | 69 | 128 | 0.9 | 2.6 | 0.00 | 1.34 | 0.00 | 91 | 1012.7 |
| 20260905075957 | 69 | 59 | 0.9 | 2.6 | 0.00 | 1.54 | 0.00 | 91 | 1012.8 |
| 20260905075457 | 69 | 70 | 0.9 | 1.7 | 0.00 | 1.54 | 0.00 | 91 | 1012.8 |
| 20260905074957 | 69 | 67 | 0.9 | 4.3 | 0.00 | 1.54 | 0.00 | 91 | 1012.7 |
| 20260905074456 | 69 | 74 | 1.7 | 3.5 | 0.00 | 1.54 | 0.00 | 91 | 1012.8 |
| 20260905073957 | 69 | 73 | 0.9 | 2.6 | 0.00 | 1.54 | 0.00 | 91 | 1012.8 |
| 20260905073457 | 69 | 59 | 0.0 | 1.7 | 0.00 | 1.54 | 0.00 | 91 | 1012.8 |
| 20260905072956 | 69 | 59 | 0.0 | 1.7 | 0.00 | 1.54 | 0.00 | 91 | 1012.8 |
| 20260905072457 | 69 | 4 | 0.0 | 1.7 | 0.00 | 1.54 | 0.00 | 91 | 1012.8 |
| 20260905071956 | 69 | 101 | 0.0 | 2.6 | 0.00 | 1.54 | 0.00 | 91 | 1012.9 |
| 20260905071457 | 69 | 101 | 0.9 | 2.6 | 0.00 | 1.54 | 0.00 | 91 | 1012.8 |
| 20260905070956 | 69 | 63 | 0.9 | 2.6 | 0.00 | 1.54 | 0.00 | 91 | 1012.8 |
| 20260905070456 | 69 | 71 | 0.9 | 2.6 | 0.00 | 1.54 | 0.00 | 91 | 1012.8 |
| 20260905065959 | 69 | 80 | 0.9 | 2.6 | 0.00 | 1.54 | 0.00 | 91 | 1012.8 |
| 20260905065458 | 69 | 78 | 0.0 | 2.6 | 0.00 | 1.54 | 0.00 | 91 | 1012.8 |
| 20260905064958 | 69 | 78 | 0.9 | 2.6 | 0.00 | 1.54 | 0.00 | 91 | 1012.8 |
| 20260905064457 | 70 | 39 | 0.9 | 3.5 | 0.00 | 1.54 | 0.00 | 91 | 1012.7 |
| 20260905063957 | 70 | 78 | 0.9 | 3.5 | 0.00 | 1.54 | 0.00 | 91 | 1012.6 |
| 20260905063458 | 70 | 76 | 0.9 | 2.6 | 0.00 | 1.54 | 0.00 | 91 | 1012.5 |
| 20260905062958 | 70 | 64 | 1.7 | 3.5 | 0.00 | 1.54 | 0.00 | 91 | 1012.5 |
| 20260905055457 | 71 | 98 | 0.9 | 4.3 | 0.00 | 1.54 | 0.00 | 91 | 1012.8 |
| 20260905054957 | 71 | 66 | 0.0 | 2.6 | 0.00 | 1.54 | 0.00 | 91 | 1012.8 |
| 20260905054457 | 71 | 266 | 0.9 | 2.6 | 0.00 | 1.54 | 0.00 | 91 | 1012.9 |
| 20260905053957 | 71 | 57 | 0.9 | 2.6 | 0.00 | 1.54 | 0.00 | 91 | 1012.9 |
| 20260905053457 | 71 | 68 | 0.9 | 5.2 | 0.00 | 1.54 | 0.00 | 91 | 1013.0 |
| 20260905052957 | 71 | 75 | 1.7 | 5.2 | 0.00 | 1.54 | 0.00 | 91 | 1013.0 |
| 20260905045457 | 71 | 55 | 0.0 | 0.9 | 0.00 | 1.54 | 0.00 | 91 | 1013.0 |
| 20260905044957 | 71 | 55 | 0.0 | 0.9 | 0.00 | 1.54 | 0.00 | 91 | 1012.9 |
| 20260905044457 | 71 | 55 | 0.0 | 2.6 | 0.00 | 1.54 | 0.00 | 91 | 1012.8 |
| 20260905043957 | 71 | 55 | 0.0 | 2.6 | 0.00 | 1.54 | 0.00 | 91 | 1012.7 |
| 20260905043457 | 71 | 117 | 0.0 | 1.7 | 0.00 | 1.54 | 0.00 | 91 | 1012.7 |
| 20260905042957 | 71 | 88 | 0.9 | 1.7 | 0.00 | 1.54 | 0.00 | 91 | 1012.7 |
| 20260905042456 | 71 | 120 | 0.0 | 1.7 | 0.00 | 1.54 | 0.00 | 91 | 1012.8 |
| 20260905034458 | 71 | 86 | 0.0 | 1.7 | 0.00 | 1.54 | 1.54 | 90 | 1013.3 |
| 20260905033958 | 71 | 93 | 0.9 | 1.7 | 0.00 | 1.54 | 1.54 | 90 | 1013.2 |
| 20260905033459 | 71 | 163 | 0.0 | 0.0 | 0.00 | 1.54 | 1.54 | 90 | 1013.2 |
| 20260905032959 | 71 | 163 | 0.0 | 0.0 | 0.00 | 1.54 | 1.54 | 90 | 1013.3 |
| 20260905032458 | 71 | 163 | 0.0 | 0.0 | 0.00 | 1.54 | 1.54 | 90 | 1013.4 |
| 20260905032000 | 71 | 163 | 0.0 | 0.0 | 0.00 | 1.54 | 1.54 | 90 | 1013.3 |
| 20260905031458 | 71 | 163 | 0.0 | 0.0 | 0.00 | 1.54 | 1.54 | 90 | 1013.3 |
| 20260905030959 | 71 | 163 | 0.0 | 0.0 | 0.00 | 1.54 | 1.54 | 90 | 1013.4 |
| 20260905030458 | 72 | 163 | 0.0 | 0.0 | 0.00 | 1.54 | 1.54 | 90 | 1013.3 |
| 20260905025958 | 72 | 163 | 0.0 | 0.0 | 0.00 | 1.54 | 1.54 | 90 | 1013.3 |
| 20260905025458 | 72 | 163 | 0.0 | 0.0 | 0.00 | 1.54 | 1.54 | 90 | 1013.4 |
| 20260905024958 | 72 | 163 | 0.0 | 0.0 | 0.00 | 1.54 | 1.54 | 90 | 1013.3 |
| 20260905024457 | 72 | 163 | 0.0 | 0.0 | 0.00 | 1.54 | 1.54 | 90 | 1013.3 |
| 20260905023957 | 72 | 163 | 0.0 | 0.0 | 0.00 | 1.54 | 1.54 | 90 | 1013.4 |
| 20260905023457 | 72 | 163 | 0.0 | 0.0 | 0.00 | 1.54 | 1.54 | 90 | 1013.4 |
| 20260905022957 | 72 | 163 | 0.0 | 0.0 | 0.00 | 1.54 | 1.54 | 90 | 1013.3 |
| 20260905022457 | 72 | 163 | 0.0 | 0.0 | 0.00 | 1.54 | 1.54 | 90 | 1013.3 |
| 20260905021958 | 72 | 163 | 0.0 | 0.0 | 0.00 | 1.54 | 1.54 | 90 | 1013.5 |
| 20260905021457 | 72 | 163 | 0.0 | 0.0 | 0.00 | 1.54 | 1.54 | 90 | 1013.4 |
| 20260905020957 | 72 | 163 | 0.0 | 0.0 | 0.00 | 1.54 | 1.54 | 90 | 1013.4 |
| 20260905020458 | 72 | 163 | 0.0 | 0.0 | 0.00 | 1.54 | 1.54 | 90 | 1013.3 |
| 20260905015957 | 73 | 163 | 0.0 | 0.0 | 0.00 | 1.54 | 1.54 | 90 | 1013.5 |
| 20260905015458 | 73 | 163 | 0.0 | 0.0 | 0.00 | 1.54 | 1.54 | 90 | 1013.4 |
| 20260905014958 | 73 | 163 | 0.0 | 0.0 | 0.00 | 1.54 | 1.54 | 90 | 1013.3 |
| 20260905014458 | 73 | 163 | 0.0 | 0.0 | 0.00 | 1.54 | 1.54 | 90 | 1013.4 |
| 20260905013958 | 73 | 163 | 0.0 | 0.0 | 0.00 | 1.54 | 1.54 | 90 | 1013.3 |
| 20260905013457 | 73 | 163 | 0.0 | 0.0 | 0.00 | 1.54 | 1.54 | 90 | 1013.3 |
| 20260905012958 | 73 | 163 | 0.0 | 0.0 | 0.00 | 1.54 | 1.54 | 90 | 1013.4 |
| 20260905012457 | 73 | 163 | 0.0 | 0.0 | 0.00 | 1.54 | 1.54 | 90 | 1013.5 |
| 20260905011957 | 73 | 163 | 0.0 | 0.0 | 0.00 | 1.54 | 1.54 | 90 | 1013.5 |
| 20260905011458 | 73 | 163 | 0.0 | 0.0 | 0.00 | 1.54 | 1.54 | 90 | 1013.4 |
| 20260905010957 | 73 | 163 | 0.0 | 0.0 | 0.00 | 1.54 | 1.54 | 90 | 1013.4 |
| 20260905010458 | 73 | 163 | 0.0 | 0.0 | 0.00 | 1.54 | 1.54 | 90 | 1013.3 |
| 20260905005957 | 73 | 163 | 0.0 | 0.0 | 0.00 | 1.54 | 1.54 | 89 | 1013.4 |
| 20260905005457 | 73 | 163 | 0.0 | 0.0 | 0.00 | 1.54 | 1.54 | 89 | 1013.3 |
| 20260905004957 | 74 | 163 | 0.0 | 0.0 | 0.00 | 1.54 | 1.54 | 89 | 1013.3 |
| 20260905004457 | 74 | 163 | 0.0 | 0.0 | 0.00 | 1.54 | 1.54 | 89 | 1013.3 |
| 20260905003956 | 74 | 163 | 0.0 | 0.0 | 0.00 | 1.54 | 1.54 | 89 | 1013.2 |
| 20260905003457 | 74 | 163 | 0.0 | 0.0 | 0.00 | 1.54 | 1.54 | 89 | 1013.3 |
| 20260905002959 | 74 | 163 | 0.0 | 0.0 | 0.00 | 1.54 | 1.54 | 89 | 1013.1 |
| 20260905002457 | 74 | 163 | 0.0 | 0.0 | 0.00 | 1.54 | 1.54 | 88 | 1013.1 |
| 20260905001957 | 74 | 163 | 0.0 | 0.0 | 0.00 | 1.54 | 1.54 | 88 | 1013.1 |
| 20260905001457 | 74 | 163 | 0.0 | 0.0 | 0.00 | 1.54 | 1.54 | 88 | 1013.1 |
| 20260905000958 | 75 | 163 | 0.0 | 0.0 | 0.00 | 1.54 | 1.54 | 88 | 1013.0 |
| 20260905000457 | 75 | 163 | 0.0 | 0.0 | 0.00 | 1.54 | 1.54 | 88 | 1013.0 |
| 20260904235958 | 75 | 163 | 0.0 | 0.0 | 0.00 | 1.54 | 1.54 | 88 | 1012.9 |
| 20260904235457 | 75 | 163 | 0.0 | 0.0 | 0.00 | 1.54 | 1.54 | 88 | 1012.9 |
| 20260904234958 | 75 | 163 | 0.0 | 0.0 | 0.00 | 1.54 | 1.54 | 89 | 1013.0 |
| 20260904234458 | 75 | 163 | 0.0 | 0.0 | 0.00 | 1.54 | 1.54 | 89 | 1013.0 |
| 20260904233957 | 75 | 163 | 0.0 | 0.0 | 0.00 | 1.54 | 1.54 | 89 | 1013.1 |
| 20260904233458 | 75 | 163 | 0.0 | 0.0 | 0.00 | 1.54 | 1.54 | 88 | 1013.0 |
| 20260904232959 | 75 | 163 | 0.0 | 0.0 | 0.00 | 1.54 | 1.54 | 88 | 1013.1 |
| 20260904232458 | 75 | 163 | 0.0 | 0.9 | 0.00 | 1.54 | 1.54 | 88 | 1013.2 |
| 20260904224458 | 77 | 74 | 0.0 | 0.0 | 0.00 | 1.54 | 1.54 | 87 | 1013.0 |
| 20260904223957 | 77 | 74 | 0.0 | 0.0 | 0.00 | 1.54 | 1.54 | 86 | 1012.8 |
| 20260904223458 | 77 | 74 | 0.0 | 0.0 | 0.00 | 1.54 | 1.54 | 86 | 1012.8 |
| 20260904222957 | 77 | 74 | 0.0 | 0.0 | 0.00 | 1.54 | 1.54 | 86 | 1012.8 |
| 20260904222457 | 78 | 74 | 0.0 | 0.9 | 0.00 | 1.54 | 1.54 | 85 | 1012.8 |
| 20260904221957 | 78 | 74 | 0.0 | 0.9 | 0.00 | 1.54 | 1.54 | 84 | 1012.5 |
| 20260904221457 | 79 | 78 | 0.0 | 1.7 | 0.00 | 1.54 | 1.54 | 84 | 1012.5 |
| 20260904220958 | 79 | 78 | 0.0 | 0.9 | 0.00 | 1.54 | 1.54 | 84 | 1012.4 |
| 20260904220457 | 78 | 78 | 0.0 | 0.9 | 0.00 | 1.54 | 1.54 | 84 | 1012.3 |
| 20260904220000 | 78 | 78 | 0.0 | 1.7 | 0.00 | 1.54 | 1.54 | 86 | 1012.1 |
| 20260904215457 | 78 | 78 | 0.0 | 2.6 | 0.00 | 1.54 | 1.54 | 86 | 1012.2 |
| 20260904214957 | 78 | 137 | 0.0 | 2.6 | 0.00 | 1.54 | 1.54 | 85 | 1012.3 |
| 20260904214458 | 78 | 107 | 0.0 | 0.9 | 0.00 | 1.54 | 1.54 | 86 | 1012.3 |
| 20260904213958 | 78 | 290 | 0.0 | 0.0 | 0.00 | 1.54 | 1.54 | 88 | 1012.3 |
| 20260904213457 | 77 | 290 | 0.0 | 1.7 | 0.00 | 1.54 | 1.54 | 87 | 1012.2 |
| 20260904212958 | 77 | 290 | 0.0 | 1.7 | 0.00 | 1.54 | 1.54 | 87 | 1012.3 |
| 20260904212457 | 77 | 11 | 0.0 | 0.9 | 0.00 | 1.54 | 1.54 | 86 | 1012.3 |
| 20260904211958 | 77 | 349 | 0.0 | 0.9 | 0.00 | 1.54 | 1.54 | 87 | 1012.3 |
| 20260904211458 | 77 | 99 | 0.0 | 1.7 | 0.00 | 1.54 | 1.54 | 87 | 1012.3 |
| 20260904210958 | 77 | 345 | 0.0 | 1.7 | 0.00 | 1.54 | 1.54 | 85 | 1012.3 |
| 20260904210457 | 77 | 332 | 0.9 | 1.7 | 0.00 | 1.54 | 1.54 | 84 | 1012.4 |
| 20260904210000 | 77 | 285 | 0.0 | 1.7 | 0.00 | 1.54 | 1.54 | 85 | 1012.5 |
| 20260904205458 | 77 | 329 | 0.0 | 0.9 | 0.00 | 1.54 | 1.54 | 86 | 1012.5 |
| 20260904204958 | 77 | 329 | 0.0 | 2.6 | 0.00 | 1.54 | 1.54 | 86 | 1012.7 |
| 20260904204458 | 77 | 112 | 0.0 | 2.6 | 0.00 | 1.54 | 1.54 | 87 | 1012.7 |
| 20260904203959 | 77 | 123 | 0.0 | 0.9 | 0.00 | 1.54 | 1.54 | 88 | 1012.7 |
| 20260904200000 | 76 | 258 | 0.0 | 0.9 | 0.00 | 1.54 | 1.54 | 86 | 1012.8 |
| 20260904195458 | 76 | 232 | 0.0 | 0.9 | 0.00 | 1.54 | 1.54 | 87 | 1013.2 |
| 20260904194959 | 76 | 232 | 0.0 | 0.9 | 0.00 | 1.54 | 1.54 | 87 | 1013.3 |
| 20260904194458 | 76 | 184 | 0.0 | 1.7 | 0.00 | 1.54 | 1.54 | 88 | 1013.3 |
| 20260904193959 | 76 | 184 | 0.0 | 1.7 | 0.00 | 1.54 | 1.54 | 88 | 1013.4 |
| 20260904193458 | 75 | 86 | 0.0 | 0.9 | 0.00 | 1.54 | 1.54 | 88 | 1013.3 |
| 20260904192959 | 75 | 179 | 0.0 | 1.7 | 0.00 | 1.54 | 1.54 | 89 | 1013.4 |
| 20260904192458 | 75 | 182 | 0.0 | 1.7 | 0.00 | 1.54 | 1.54 | 89 | 1013.4 |
| 20260904191958 | 75 | 45 | 0.9 | 1.7 | 0.00 | 1.54 | 1.54 | 89 | 1013.4 |
| 20260904191458 | 75 | 55 | 0.9 | 1.7 | 0.00 | 1.54 | 1.54 | 89 | 1013.4 |
| 20260904190958 | 75 | 57 | 0.9 | 1.7 | 0.00 | 1.54 | 1.54 | 90 | 1013.4 |
| 20260904190459 | 74 | 40 | 0.9 | 1.7 | 0.00 | 1.54 | 1.54 | 89 | 1013.4 |
| 20260904185957 | 75 | 38 | 0.9 | 1.7 | 0.00 | 1.57 | 1.54 | 90 | 1013.4 |
| 20260904185457 | 74 | 218 | 0.0 | 1.7 | 0.00 | 1.57 | 1.54 | 89 | 1013.5 |
| 20260904184957 | 74 | 218 | 0.9 | 2.6 | 0.00 | 1.57 | 1.54 | 90 | 1013.4 |
| 20260904184458 | 74 | 207 | 0.0 | 1.7 | 0.00 | 1.57 | 1.54 | 90 | 1013.3 |
| 20260904183957 | 74 | 49 | 0.9 | 1.7 | 0.00 | 1.57 | 1.54 | 90 | 1013.3 |
| 20260904183457 | 74 | 222 | 0.9 | 1.7 | 0.00 | 1.57 | 1.54 | 90 | 1013.3 |
| 20260904182957 | 74 | 349 | 0.0 | 1.7 | 0.00 | 1.57 | 1.54 | 91 | 1013.3 |
| 20260904182458 | 74 | 27 | 0.9 | 1.7 | 0.00 | 1.57 | 1.54 | 91 | 1013.2 |
| 20260904181957 | 74 | 69 | 0.0 | 1.7 | 0.00 | 1.57 | 1.54 | 91 | 1013.2 |
| 20260904181457 | 74 | 76 | 0.0 | 1.7 | 0.00 | 1.57 | 1.54 | 91 | 1013.2 |
| 20260904180958 | 74 | 76 | 0.0 | 2.6 | 0.00 | 1.57 | 1.54 | 91 | 1013.2 |
| 20260904180457 | 73 | 138 | 0.9 | 2.6 | 0.00 | 1.57 | 1.54 | 91 | 1013.2 |
| 20260904175958 | 74 | 93 | 0.0 | 1.7 | 0.00 | 1.81 | 1.54 | 92 | 1013.3 |
| 20260904175457 | 73 | 33 | 0.9 | 1.7 | 0.00 | 1.81 | 1.54 | 92 | 1013.3 |